contact:dominique.lefevre@mio.osupytheas.fr, maurice.libes@osupytheas.fr, didier.mallarino@osupytheas.fr
Project:EMSO http://www.emso-fr.org/EMSO-France
Depth: 2436.0 m
Title:EMSO Ligure Ouest : Data MII capteur CSTAR
DateTime,Latitude,Longitude,Instrument_Serial,Reference_Counts,Signal_Counts,Corrected_Signal_raw_counts,Calculated_Beam_c_inverse_meters,Internal_thermistor_counts
DateTime,Latitude,Longitude,Instrument_Serial,Reference_Counts,Signal_Counts,Corrected_Signal_raw_counts,Calculated_Beam_c_inverse_meters,Internal_thermistor_counts
2024-01-05T00:02:58,42.805,6.029,CST-1368DR,4069,4275,11130,01.355,553
2024-01-05T00:06:00,42.805,6.029,CST-1368DR,4069,4274,11126,01.356,553
2024-01-05T00:09:01,42.805,6.029,CST-1368DR,4069,4275,11130,01.355,553
2024-01-05T00:12:03,42.805,6.029,CST-1368DR,4069,4276,11133,01.354,553
2024-01-05T00:15:04,42.805,6.029,CST-1368DR,4069,4274,11126,01.356,553
2024-01-05T00:18:06,42.805,6.029,CST-1368DR,4069,4275,11130,01.355,553
2024-01-05T00:21:07,42.805,6.029,CST-1368DR,4069,4277,11136,01.352,553
2024-01-05T00:24:09,42.805,6.029,CST-1368DR,4069,4277,11135,01.353,553
2024-01-05T00:27:11,42.805,6.029,CST-1368DR,4069,4275,11130,01.355,553
2024-01-05T00:30:12,42.805,6.029,CST-1368DR,4069,4276,11133,01.354,553
2024-01-05T00:33:14,42.805,6.029,CST-1368DR,4068,4275,11132,01.354,553
2024-01-05T00:36:15,42.805,6.029,CST-1368DR,4069,4274,11126,01.356,553
2024-01-05T00:39:17,42.805,6.029,CST-1368DR,4069,4275,11130,01.355,553
2024-01-05T00:42:18,42.805,6.029,CST-1368DR,4069,4276,11132,01.354,553
2024-01-05T00:45:20,42.805,6.029,CST-1368DR,4069,4276,11132,01.354,553
2024-01-05T00:48:22,42.805,6.029,CST-1368DR,4069,4275,11130,01.355,553
2024-01-05T00:51:23,42.805,6.029,CST-1368DR,4069,4274,11128,01.355,553
2024-01-05T00:54:25,42.805,6.029,CST-1368DR,4069,4276,11133,01.354,553
2024-01-05T00:57:26,42.805,6.029,CST-1368DR,4069,4275,11130,01.355,553
2024-01-05T01:00:28,42.805,6.029,CST-1368DR,4069,4274,11127,01.356,553
2024-01-05T01:03:30,42.805,6.029,CST-1368DR,4069,4273,11125,01.356,553
2024-01-05T01:06:31,42.805,6.029,CST-1368DR,4069,4272,11121,01.358,553
2024-01-05T01:09:33,42.805,6.029,CST-1368DR,4069,4268,11112,01.361,553
2024-01-05T01:12:34,42.805,6.029,CST-1368DR,4069,4275,11130,01.355,553
2024-01-05T01:15:36,42.805,6.029,CST-1368DR,4069,4277,11134,01.353,553
2024-01-05T01:18:37,42.805,6.029,CST-1368DR,4069,4277,11134,01.353,553
2024-01-05T01:21:39,42.805,6.029,CST-1368DR,4069,4277,11134,01.353,553
2024-01-05T01:24:41,42.805,6.029,CST-1368DR,4069,4277,11136,01.352,553
2024-01-05T01:27:42,42.805,6.029,CST-1368DR,4069,4276,11132,01.354,553
2024-01-05T01:30:44,42.805,6.029,CST-1368DR,4069,4277,11135,01.353,553
2024-01-05T01:33:45,42.805,6.029,CST-1368DR,4069,4275,11130,01.355,553
2024-01-05T01:36:47,42.805,6.029,CST-1368DR,4069,4276,11133,01.354,553
2024-01-05T01:39:48,42.805,6.029,CST-1368DR,4069,4275,11128,01.355,553
2024-01-05T01:42:50,42.805,6.029,CST-1368DR,4069,4278,11137,01.352,553
2024-01-05T01:45:52,42.805,6.029,CST-1368DR,4069,4274,11126,01.356,553
2024-01-05T01:48:53,42.805,6.029,CST-1368DR,4069,4275,11130,01.355,553
2024-01-05T01:51:55,42.805,6.029,CST-1368DR,4069,4275,11130,01.355,553
2024-01-05T01:54:56,42.805,6.029,CST-1368DR,4069,4276,11133,01.354,553
2024-01-05T01:57:58,42.805,6.029,CST-1368DR,4069,4277,11134,01.353,553
2024-01-05T02:00:59,42.805,6.029,CST-1368DR,4069,4276,11132,01.354,553
2024-01-05T02:04:01,42.805,6.029,CST-1368DR,4069,4276,11132,01.354,553
2024-01-05T02:07:03,42.805,6.029,CST-1368DR,4069,4276,11133,01.354,553
2024-01-05T02:10:04,42.805,6.029,CST-1368DR,4069,4275,11130,01.355,553
2024-01-05T02:13:06,42.805,6.029,CST-1368DR,4069,4277,11134,01.353,553
2024-01-05T02:16:07,42.805,6.029,CST-1368DR,4069,4275,11130,01.355,553
2024-01-05T02:19:09,42.805,6.029,CST-1368DR,4069,4277,11136,01.352,553
2024-01-05T02:22:11,42.805,6.029,CST-1368DR,4069,4277,11136,01.352,553
2024-01-05T02:25:12,42.805,6.029,CST-1368DR,4069,4277,11134,01.353,553
2024-01-05T02:28:14,42.805,6.029,CST-1368DR,4069,4276,11133,01.354,553
2024-01-05T02:31:15,42.805,6.029,CST-1368DR,4069,4276,11132,01.354,553
2024-01-05T02:34:17,42.805,6.029,CST-1368DR,4069,4278,11136,01.352,553
2024-01-05T02:37:18,42.805,6.029,CST-1368DR,4069,4277,11135,01.353,553
2024-01-05T02:40:20,42.805,6.029,CST-1368DR,4068,4276,11135,01.353,553
2024-01-05T02:43:22,42.805,6.029,CST-1368DR,4069,4276,11132,01.354,553
2024-01-05T02:46:23,42.805,6.029,CST-1368DR,4068,4278,11139,01.351,553
2024-01-05T02:49:25,42.805,6.029,CST-1368DR,4069,4278,11136,01.352,553
2024-01-05T02:52:26,42.805,6.029,CST-1368DR,4068,4277,11136,01.352,553
2024-01-05T02:55:28,42.805,6.029,CST-1368DR,4069,4277,11134,01.353,553
2024-01-05T02:58:29,42.805,6.029,CST-1368DR,4069,4276,11132,01.354,553
2024-01-05T03:01:31,42.805,6.029,CST-1368DR,4069,4277,11134,01.353,553
2024-01-05T03:04:33,42.805,6.029,CST-1368DR,4068,4276,11136,01.352,553
2024-01-05T03:07:34,42.805,6.029,CST-1368DR,4069,4276,11132,01.354,553
2024-01-05T03:10:36,42.805,6.029,CST-1368DR,4068,4278,11139,01.351,553
2024-01-05T03:13:37,42.805,6.029,CST-1368DR,4069,4276,11132,01.354,553
2024-01-05T03:16:39,42.805,6.029,CST-1368DR,4069,4276,11132,01.354,553
2024-01-05T03:19:40,42.805,6.029,CST-1368DR,4068,4275,11132,01.354,553
2024-01-05T03:22:42,42.805,6.029,CST-1368DR,4068,4276,11135,01.353,553
2024-01-05T03:25:44,42.805,6.029,CST-1368DR,4069,4277,11134,01.353,553
2024-01-05T03:28:45,42.805,6.029,CST-1368DR,4068,4276,11136,01.352,553
2024-01-05T03:31:47,42.805,6.029,CST-1368DR,4068,4276,11136,01.352,553
2024-01-05T03:34:48,42.805,6.029,CST-1368DR,4069,4276,11132,01.354,553
2024-01-05T03:37:50,42.805,6.029,CST-1368DR,4068,4274,11130,01.355,553
2024-01-05T03:40:52,42.805,6.029,CST-1368DR,4068,4277,11136,01.352,553
2024-01-05T03:43:53,42.805,6.029,CST-1368DR,4068,4275,11132,01.354,553
2024-01-05T03:46:55,42.805,6.029,CST-1368DR,4068,4276,11134,01.353,553
2024-01-05T03:49:56,42.805,6.029,CST-1368DR,4069,4274,11126,01.356,553
2024-01-05T03:52:58,42.805,6.029,CST-1368DR,4069,4275,11128,01.355,553
2024-01-05T03:55:59,42.805,6.029,CST-1368DR,4068,4274,11129,01.355,553
2024-01-05T03:59:01,42.805,6.029,CST-1368DR,4068,4273,11126,01.356,553
2024-01-05T04:02:03,42.805,6.029,CST-1368DR,4068,4271,11123,01.357,553
2024-01-05T04:05:04,42.805,6.029,CST-1368DR,4068,4275,11132,01.354,553
2024-01-05T04:08:06,42.805,6.029,CST-1368DR,4068,4274,11130,01.355,553
2024-01-05T04:11:07,42.805,6.029,CST-1368DR,4068,4276,11135,01.353,553
2024-01-05T04:14:09,42.805,6.029,CST-1368DR,4068,4274,11130,01.355,553
2024-01-05T04:17:10,42.805,6.029,CST-1368DR,4068,4277,11136,01.352,553
2024-01-05T04:20:12,42.805,6.029,CST-1368DR,4068,4274,11130,01.355,553
2024-01-05T04:23:14,42.805,6.029,CST-1368DR,4068,4276,11134,01.353,553
2024-01-05T04:26:15,42.805,6.029,CST-1368DR,4068,4275,11132,01.354,553
2024-01-05T04:29:17,42.805,6.029,CST-1368DR,4068,4276,11135,01.353,553
2024-01-05T04:32:18,42.805,6.029,CST-1368DR,4069,4275,11128,01.355,553
2024-01-05T04:35:20,42.805,6.029,CST-1368DR,4068,4264,11102,01.365,553
2024-01-05T04:38:22,42.805,6.029,CST-1368DR,4068,4263,11100,01.365,553
2024-01-05T04:41:23,42.805,6.029,CST-1368DR,4068,4269,11117,01.359,553
2024-01-05T04:44:25,42.805,6.029,CST-1368DR,4068,4269,11115,01.360,553
2024-01-05T04:47:26,42.805,6.029,CST-1368DR,4068,4269,11117,01.359,553
2024-01-05T04:50:28,42.805,6.029,CST-1368DR,4068,4270,11118,01.359,553
2024-01-05T04:53:29,42.805,6.029,CST-1368DR,4068,4271,11121,01.358,553
2024-01-05T04:56:31,42.805,6.029,CST-1368DR,4068,4269,11117,01.359,553
2024-01-05T04:59:33,42.805,6.029,CST-1368DR,4068,4266,11108,01.363,553
2024-01-05T05:02:34,42.805,6.029,CST-1368DR,4068,4270,11120,01.358,553
2024-01-05T05:05:36,42.805,6.029,CST-1368DR,4068,4271,11123,01.357,553
2024-01-05T05:08:37,42.805,6.029,CST-1368DR,4068,4269,11117,01.359,553
2024-01-05T05:11:39,42.805,6.029,CST-1368DR,4068,4271,11121,01.358,553
2024-01-05T05:14:40,42.805,6.029,CST-1368DR,4068,4269,11117,01.359,553
2024-01-05T05:17:42,42.805,6.029,CST-1368DR,4068,4270,11118,01.359,553
2024-01-05T05:20:44,42.805,6.029,CST-1368DR,4068,4269,11117,01.359,553
2024-01-05T05:23:45,42.805,6.029,CST-1368DR,4068,4270,11118,01.359,553
2024-01-05T05:26:47,42.805,6.029,CST-1368DR,4068,4270,11120,01.358,553
2024-01-05T05:29:48,42.805,6.029,CST-1368DR,4068,4271,11121,01.358,553
2024-01-05T05:32:53,42.805,6.029,CST-1368DR,4068,4271,11121,01.358,553
2024-01-05T05:35:55,42.805,6.029,CST-1368DR,4068,4270,11119,01.359,553
2024-01-05T05:38:56,42.805,6.029,CST-1368DR,4068,4269,11117,01.359,553
2024-01-05T05:41:58,42.805,6.029,CST-1368DR,4068,4266,11110,01.362,553
2024-01-05T05:44:59,42.805,6.029,CST-1368DR,4068,4266,11108,01.363,553
2024-01-05T05:48:01,42.805,6.029,CST-1368DR,4068,4266,11108,01.363,553
2024-01-05T05:51:03,42.805,6.029,CST-1368DR,4068,4265,11106,01.363,553
2024-01-05T05:54:04,42.805,6.029,CST-1368DR,4068,4270,11118,01.359,553
2024-01-05T05:57:06,42.805,6.029,CST-1368DR,4068,4268,11114,01.360,553
2024-01-05T06:00:07,42.805,6.029,CST-1368DR,4068,4269,11117,01.359,553
2024-01-05T06:03:09,42.805,6.029,CST-1368DR,4068,4268,11113,01.361,553
2024-01-05T06:06:10,42.805,6.029,CST-1368DR,4068,4268,11114,01.360,553
2024-01-05T06:09:12,42.805,6.029,CST-1368DR,4068,4268,11115,01.360,553
2024-01-05T06:12:14,42.805,6.029,CST-1368DR,4068,4268,11115,01.360,553
2024-01-05T06:15:15,42.805,6.029,CST-1368DR,4068,4268,11113,01.361,553
2024-01-05T06:18:17,42.805,6.029,CST-1368DR,4068,4266,11109,01.362,553
2024-01-05T06:21:18,42.805,6.029,CST-1368DR,4068,4269,11117,01.359,553
2024-01-05T06:24:20,42.805,6.029,CST-1368DR,4068,4269,11117,01.359,553
2024-01-05T06:27:21,42.805,6.029,CST-1368DR,4068,4269,11115,01.360,553
2024-01-05T06:30:23,42.805,6.029,CST-1368DR,4068,4270,11119,01.359,553
2024-01-05T06:33:25,42.805,6.029,CST-1368DR,4068,4269,11117,01.359,553
2024-01-05T06:36:26,42.805,6.029,CST-1368DR,4068,4269,11115,01.360,553
2024-01-05T06:39:28,42.805,6.029,CST-1368DR,4068,4267,11111,01.361,553
2024-01-05T06:42:29,42.805,6.029,CST-1368DR,4068,4268,11113,01.361,553
2024-01-05T06:45:31,42.805,6.029,CST-1368DR,4068,4269,11117,01.359,553
2024-01-05T06:48:33,42.805,6.029,CST-1368DR,4068,4270,11118,01.359,553
2024-01-05T06:51:34,42.805,6.029,CST-1368DR,4068,4269,11115,01.360,553
2024-01-05T06:54:36,42.805,6.029,CST-1368DR,4068,4268,11113,01.361,553
2024-01-05T06:57:37,42.805,6.029,CST-1368DR,4068,4267,11111,01.361,553
2024-01-05T07:00:39,42.805,6.029,CST-1368DR,4068,4268,11114,01.360,553
2024-01-05T07:03:40,42.805,6.029,CST-1368DR,4068,4265,11106,01.363,553
2024-01-05T07:06:42,42.805,6.029,CST-1368DR,4068,4267,11110,01.362,553
2024-01-05T07:09:44,42.805,6.029,CST-1368DR,4068,4267,11111,01.361,553
2024-01-05T07:12:45,42.805,6.029,CST-1368DR,4068,4268,11114,01.360,553
2024-01-05T07:15:47,42.805,6.029,CST-1368DR,4068,4268,11115,01.360,553
2024-01-05T07:18:48,42.805,6.029,CST-1368DR,4068,4266,11110,01.362,553
2024-01-05T07:21:50,42.805,6.029,CST-1368DR,4068,4268,11113,01.361,553
2024-01-05T07:24:51,42.805,6.029,CST-1368DR,4068,4267,11112,01.361,553
2024-01-05T07:27:53,42.805,6.029,CST-1368DR,4068,4268,11113,01.361,553
2024-01-05T07:30:56,42.805,6.029,CST-1368DR,4068,4268,11114,01.360,553
2024-01-05T07:33:58,42.805,6.029,CST-1368DR,4068,4268,11114,01.360,553
2024-01-05T07:36:59,42.805,6.029,CST-1368DR,4068,4269,11115,01.360,553
2024-01-05T07:40:01,42.805,6.029,CST-1368DR,4068,4268,11113,01.361,553
2024-01-05T07:43:02,42.805,6.029,CST-1368DR,4068,4268,11114,01.360,553
2024-01-05T07:46:04,42.805,6.029,CST-1368DR,4068,4267,11111,01.361,553
2024-01-05T07:49:06,42.805,6.029,CST-1368DR,4068,4266,11108,01.363,553
2024-01-05T07:52:07,42.805,6.029,CST-1368DR,4068,4267,11111,01.361,553
2024-01-05T07:55:09,42.805,6.029,CST-1368DR,4068,4267,11111,01.361,553
2024-01-05T07:58:10,42.805,6.029,CST-1368DR,4068,4267,11111,01.361,553
2024-01-05T08:01:12,42.805,6.029,CST-1368DR,4068,4267,11111,01.361,553
2024-01-05T08:04:14,42.805,6.029,CST-1368DR,4068,4267,11111,01.361,553
2024-01-05T08:07:15,42.805,6.029,CST-1368DR,4068,4269,11117,01.359,553
2024-01-05T08:10:17,42.805,6.029,CST-1368DR,4068,4263,11100,01.365,553
2024-01-05T08:13:18,42.805,6.029,CST-1368DR,4068,4269,11115,01.360,553
2024-01-05T08:16:20,42.805,6.029,CST-1368DR,4068,4267,11111,01.361,553
2024-01-05T08:19:21,42.805,6.029,CST-1368DR,4068,4268,11113,01.361,553
2024-01-05T08:22:23,42.805,6.029,CST-1368DR,4068,4266,11108,01.363,553
2024-01-05T08:25:25,42.805,6.029,CST-1368DR,4068,4266,11108,01.363,553
2024-01-05T08:28:26,42.805,6.029,CST-1368DR,4068,4269,11117,01.359,553
2024-01-05T08:31:28,42.805,6.029,CST-1368DR,4067,4266,11110,01.362,553
2024-01-05T08:34:29,42.805,6.029,CST-1368DR,4067,4265,11109,01.362,553
2024-01-05T08:37:31,42.805,6.029,CST-1368DR,4067,4266,11110,01.362,553
2024-01-05T08:40:32,42.805,6.029,CST-1368DR,4067,4267,11115,01.360,553
2024-01-05T08:43:34,42.805,6.029,CST-1368DR,4067,4267,11113,01.361,553
2024-01-05T08:46:36,42.805,6.029,CST-1368DR,4067,4265,11109,01.362,553
2024-01-05T08:49:37,42.805,6.029,CST-1368DR,4067,4267,11114,01.360,553
2024-01-05T08:52:39,42.805,6.029,CST-1368DR,4067,4266,11111,01.361,553
2024-01-05T08:55:40,42.805,6.029,CST-1368DR,4067,4265,11109,01.362,553
2024-01-05T08:58:42,42.805,6.029,CST-1368DR,4067,4264,11107,01.363,553
2024-01-05T09:01:44,42.805,6.029,CST-1368DR,4067,4266,11110,01.362,553
2024-01-05T09:04:45,42.805,6.029,CST-1368DR,4067,4265,11108,01.363,553
2024-01-05T09:07:47,42.805,6.029,CST-1368DR,4067,4266,11111,01.361,553
2024-01-05T09:10:48,42.805,6.029,CST-1368DR,4067,4266,11111,01.361,553
2024-01-05T09:13:50,42.805,6.029,CST-1368DR,4067,4266,11112,01.361,553
2024-01-05T09:16:51,42.805,6.029,CST-1368DR,4067,4261,11099,01.366,553
2024-01-05T09:19:53,42.805,6.029,CST-1368DR,4067,4266,11110,01.362,553
2024-01-05T09:22:55,42.805,6.029,CST-1368DR,4067,4265,11109,01.362,553
2024-01-05T09:25:56,42.805,6.029,CST-1368DR,4067,4265,11109,01.362,553
2024-01-05T09:28:58,42.805,6.029,CST-1368DR,4067,4266,11110,01.362,553
2024-01-05T09:31:59,42.805,6.029,CST-1368DR,4067,4267,11113,01.361,553
2024-01-05T09:35:01,42.805,6.029,CST-1368DR,4067,4266,11110,01.362,553
2024-01-05T09:38:03,42.805,6.029,CST-1368DR,4067,4267,11113,01.361,553
2024-01-05T09:41:04,42.805,6.029,CST-1368DR,4067,4268,11116,01.360,553
2024-01-05T09:44:06,42.805,6.029,CST-1368DR,4067,4267,11114,01.360,553
2024-01-05T09:47:07,42.805,6.029,CST-1368DR,4067,4265,11109,01.362,553
2024-01-05T09:50:09,42.805,6.029,CST-1368DR,4067,4265,11109,01.362,553
2024-01-05T09:53:11,42.805,6.029,CST-1368DR,4067,4266,11112,01.361,553
2024-01-05T09:56:12,42.805,6.029,CST-1368DR,4067,4267,11113,01.361,553
2024-01-05T09:59:14,42.805,6.029,CST-1368DR,4067,4260,11097,01.366,553
2024-01-05T10:02:15,42.805,6.029,CST-1368DR,4067,4266,11111,01.361,553
2024-01-05T10:05:17,42.805,6.029,CST-1368DR,4067,4269,11118,01.359,553
2024-01-05T10:08:18,42.805,6.029,CST-1368DR,4067,4269,11118,01.359,553
2024-01-05T10:11:20,42.805,6.029,CST-1368DR,4067,4266,11111,01.361,553
2024-01-05T10:14:22,42.805,6.029,CST-1368DR,4067,4266,11111,01.361,553
2024-01-05T10:17:23,42.805,6.029,CST-1368DR,4067,4265,11108,01.363,553
2024-01-05T10:20:25,42.805,6.029,CST-1368DR,4067,4267,11114,01.360,553
2024-01-05T10:23:26,42.805,6.029,CST-1368DR,4067,4267,11114,01.360,553
2024-01-05T10:26:28,42.805,6.029,CST-1368DR,4067,4266,11111,01.361,553
2024-01-05T10:29:29,42.805,6.029,CST-1368DR,4067,4266,11112,01.361,553
2024-01-05T10:32:31,42.805,6.029,CST-1368DR,4067,4265,11108,01.363,553
2024-01-05T10:35:33,42.805,6.029,CST-1368DR,4067,4264,11107,01.363,553
2024-01-05T10:38:34,42.805,6.029,CST-1368DR,4067,4265,11109,01.362,553
2024-01-05T10:41:36,42.805,6.029,CST-1368DR,4067,4266,11111,01.361,553
2024-01-05T10:44:37,42.805,6.029,CST-1368DR,4067,4264,11106,01.363,553
2024-01-05T10:47:39,42.805,6.029,CST-1368DR,4067,4265,11108,01.363,553
2024-01-05T10:50:41,42.805,6.029,CST-1368DR,4067,4265,11108,01.363,553
2024-01-05T10:53:42,42.805,6.029,CST-1368DR,4067,4262,11102,01.365,553
2024-01-05T10:56:44,42.805,6.029,CST-1368DR,4067,4265,11109,01.362,553
2024-01-05T10:59:45,42.805,6.029,CST-1368DR,4067,4263,11102,01.365,553
2024-01-05T11:02:47,42.805,6.029,CST-1368DR,4067,4268,11116,01.360,553
2024-01-05T11:05:48,42.805,6.029,CST-1368DR,4068,4265,11105,01.364,553
2024-01-05T11:08:50,42.805,6.029,CST-1368DR,4067,4263,11104,01.364,553
2024-01-05T11:11:52,42.805,6.029,CST-1368DR,4067,4266,11110,01.362,553
2024-01-05T11:14:53,42.805,6.029,CST-1368DR,4067,4265,11109,01.362,553
2024-01-05T11:17:55,42.805,6.029,CST-1368DR,4067,4262,11102,01.365,553
2024-01-05T11:20:56,42.805,6.029,CST-1368DR,4067,4265,11108,01.363,553
2024-01-05T11:23:58,42.805,6.029,CST-1368DR,4067,4263,11104,01.364,553
2024-01-05T11:27:00,42.805,6.029,CST-1368DR,4067,4267,11113,01.361,553
2024-01-05T11:30:01,42.805,6.029,CST-1368DR,4067,4270,11121,01.358,553
